Home   Weather   Atqasuk   Past weeks
Flag for USA

Past Weather in Atqasuk, Alaska, USA — Yesterday and Last 2 Weeks

Now
25 °F

Ice fog.


Feels Like: 21 °F
Forecast: 35 / 27 °F
Wind: 3 mph from Southeast

Location: Wainwright Distant Early Warning

Current Time: May 25, 2019 at 5:55:17 am

Latest Report: May 25, 2019 at 4:53 am


Visibility: 0 mi

Pressure: 30.15 "Hg

Humidity: 92%

Dew Point: 23 °F

Location of AtqasukLocation

Past Weather in Atqasuk — Graph

°F

Atqasuk Temperature Yesterday

Maximum temperature yesterday: 33 °F (at 12:56 am)
Minimum temperature yesterday: 28 °F (at 11:53 pm)
Average temperature yesterday: 32 °F

High & Low Weather Summary for the Past Weeks

 TemperatureHumidityPressure
High37 °F (May 13, 4:53 pm)97% (May 23, 11:53 am)30.16 "Hg (May 23, 11:53 am)
Low22 °F (May 10, 3:53 am)72% (May 12, 5:53 pm)29.75 "Hg (May 18, 7:53 am)
Average31 °F89%29.95 "Hg
* Reported May 10 3:53 am — May 25 3:53 am, Atqasuk. Weather by CustomWeather, © 2019

Note: Actual official high and low records may vary slightly from our data, if they occured in-between our weather recording intervals... More about our weather records

Advertising

Atqasuk Weather History for the Previous 24 Hours

Scroll right to see more
 ConditionsComfort  
Time TempWeatherWind HumidityBarometerVisibility
3:53 am
Sat, May 25
26 °FIce fog.No wind92%30.16 "Hg1 mi
2:53 am27 °FIce fog.No wind92%30.16 "Hg0 mi
1:53 am27 °FIce fog.No wind96%30.16 "Hg0 mi
12:53 am28 °FIce fog.3 mph96%30.16 "Hg0 mi
11:53 pm
Fri, May 24
28 °FIce fog.5 mph96%30.16 "Hg0 mi
10:53 pm29 °FIce fog.8 mph93%30.16 "Hg0 mi
9:53 pm29 °FIce fog.8 mph96%30.16 "Hg0 mi
8:53 pm30 °FIce fog.9 mph92%30.15 "Hg1 mi
7:53 pm30 °FIce fog.12 mph92%30.16 "Hg5 mi
6:53 pm31 °FIce fog.13 mph92%30.16 "Hg5 mi
5:53 pm32 °FLow clouds.15 mph88%30.14 "Hg9 mi
4:53 pm32 °FLow clouds.14 mph88%30.13 "Hg10 mi
3:53 pm32 °FLow clouds.17 mph88%30.11 "Hg10 mi
2:53 pm33 °FMostly cloudy.18 mph88%30.10 "Hg10 mi
1:53 pm33 °FMostly cloudy.20 mph88%30.08 "Hg10 mi
12:53 pm32 °FLow clouds.21 mph88%30.07 "Hg10 mi
11:53 am33 °FMostly cloudy.18 mph85%30.05 "Hg10 mi
10:53 am32 °FOvercast.20 mph88%30.04 "Hg10 mi
9:53 am32 °FMostly cloudy.18 mph92%30.03 "Hg10 mi
8:53 am32 °FLight snow. Ice fog.18 mph88%30.01 "Hg6 mi
7:58 am32 °FLight snow. Ice fog.16 mph92%30.00 "Hg2 mi
6:53 am32 °FLight snow. Ice fog.15 mph92%30.00 "Hg1 mi
5:58 am33 °FLight snow. Fog.15 mph92%29.99 "Hg1 mi
5:00 am32 °FLow clouds.15 mph96%29.98 "Hg10 mi
Weather by CustomWeather, © 2019

See weather overview